Location: ???? ????
(31.2831°N, 45.5190°E)
Time: 05:05:31
(UTC+00:00)

Cosmos 1633 Rocket - Pass Details

Date: 24 February 2021
Orbit: 606 x 624 km, 82.5° (Epoch: 14 April)

Event Time Altitude Azimuth Distance (km) Brightness Sun altitude
Rises 15:59:37 0° 177° (S) 2,873 6.5 -15.1°
Reaches altitude 10° 16:01:51 10° 173° (S) 1,974 5.6 -15.6°
Maximum altitude 16:06:09 61° 94° (E) 708 3.0 -16.5°
Drops below altitude 10° 16:10:30 10° 14° (NNE) 1,996 5.5 -17.4°
Sets 16:12:46 0° 11° (N) 2,907 6.4 -17.9°
